Location: Balaclava NSW 2575, Australia
(34.4510°S, 150.4953°E)
Time: 00:42:21
(UTC+10:00)

A-11 Canister half - Pass Details

Date: 16 June 2021
Orbit: 1513 x 1687 km, 47.2° (Epoch: 28 July)

Event Time Altitude Azimuth Distance (km) Brightness Sun altitude
Rises 17:28:35 0° 297° (WNW) 4,673 14.2 -7.2°
Reaches altitude 10° 17:31:37 10° 294° (WNW) 3,709 12.8 -7.7°
Maximum altitude 17:40:59 70° 211° (SSW) 1,667 9.2 -9.5°
Enters shadow 17:50:23 12° 128° (SE) 3,733 10.4 -11.3°
